SL-8 R/B

Last updated on Thu Nov 21 2024 00:02:12 GMT+0000 (Coordinated Universal Time)

1 21938U 92020B 24325.55819191 .00000224 00000+0 21680-3 0 9998 2 21938 82.9282 145.9013 0029086 178.9310 212.2335 13.75463494635955

Satellite not in orbit